FW2316 Weather Reports


Display with metric or nautical units.
time (UTC)temp
F
wind
direction
speed
MPH
gust
MPH
rain 1hr
in
rain 24hr
in
rain mn
in
humidity
%
barometer
mb
20260505053534 59 238 1.0 3.0 0.00 0.00 0.00 79 1012.5
20260505053032 59 238 0.0 4.0 0.00 0.00 0.00 78 1012.5
20260505052032 60 238 0.0 5.0 0.00 0.00 0.00 77 1012.4
20260505051532 60 238 2.0 4.0 0.00 0.00 0.00 77 1012.4
20260505051033 60 238 1.0 3.0 0.00 0.00 0.00 77 1012.4
20260505050530 60 238 0.0 3.0 0.00 0.00 0.00 77 1012.3
20260505041527 63 207 0.0 1.0 0.00 0.00 0.00 71 1011.9
20260505041027 63 206 0.0 2.0 0.00 0.00 0.00 71 1011.8
20260505040528 63 192 0.0 3.0 0.00 0.00 0.00 70 1011.7
20260505040038 64 230 0.0 5.0 0.00 0.00 0.00 69 1011.6
20260505035525 64 232 1.0 5.0 0.00 0.00 0.00 68 1011.5
20260505035026 65 205 0.0 5.0 0.00 0.00 0.00 68 1011.4
20260505034536 65 201 1.0 6.0 0.00 0.00 0.00 67 1011.2
20260505034025 66 214 0.0 5.0 0.00 0.00 0.00 66 1011.2
20260505033526 66 209 1.0 4.0 0.00 0.00 0.00 65 1011.1
20260505033026 68 252 3.0 8.0 0.00 0.00 0.00 66 1011.0
20260505032029 68 257 3.0 9.0 0.00 0.00 0.00 65 1010.8
20260505031527 69 252 2.0 9.0 0.00 0.00 0.00 64 1010.9
20260505031028 69 251 4.0 8.0 0.00 0.00 0.00 64 1010.7
20260505030525 70 240 2.0 7.0 0.00 0.00 0.00 64 1010.6
20260505030025 70 239 2.0 7.0 0.00 0.00 0.00 63 1010.6
20260505025528 71 243 3.0 5.0 0.00 0.00 0.00 63 1010.5
20260505025028 72 279 2.0 7.0 0.00 0.00 0.00 62 1010.4
20260505024524 72 286 4.0 8.0 0.00 0.00 0.00 61 1010.3
20260505024024 72 282 4.0 8.0 0.00 0.00 0.00 60 1010.4
20260505023524 73 288 3.0 10.0 0.00 0.00 0.00 59 1010.3
20260505023023 74 297 3.0 10.0 0.00 0.00 0.00 58 1010.3
20260505022025 74 272 4.0 8.0 0.00 0.00 0.00 57 1010.2
20260505021522 74 261 3.0 8.0 0.00 0.00 0.00 57 1010.2
20260505021025 75 289 4.0 10.0 0.00 0.00 0.00 56 1010.2
20260505020521 75 263 2.0 10.0 0.00 0.00 0.00 57 1010.2
20260505020034 75 270 3.0 10.0 0.00 0.00 0.00 56 1010.2
20260505015521 75 250 4.0 10.0 0.00 0.00 0.00 55 1010.1
20260505015021 76 290 4.0 9.0 0.00 0.00 0.00 53 1010.2
20260505014520 76 249 6.0 9.0 0.00 0.00 0.00 53 1010.2
20260505014021 76 288 5.0 10.0 0.00 0.00 0.00 50 1010.2
20260505013520 77 285 7.0 10.0 0.00 0.00 0.00 50 1010.2
20260505013021 77 246 0.0 3.0 0.00 0.00 0.00 48 1010.1
20260505012021 77 241 0.0 8.0 0.00 0.00 0.00 48 1010.2
20260505011521 77 219 0.0 8.0 0.00 0.00 0.00 46 1010.2
20260505011019 77 221 0.0 7.0 0.00 0.00 0.00 46 1010.2
20260505010520 77 183 0.0 5.0 0.00 0.00 0.00 44 1010.2
20260505010019 78 202 0.0 1.0 0.00 0.00 0.00 44 1010.4
20260505005519 78 229 0.0 3.0 0.00 0.00 0.00 43 1010.4
20260505005019 78 347 0.0 4.0 0.00 0.00 0.00 42 1010.4
20260505004521 78 217 1.0 4.0 0.00 0.00 0.00 42 1010.4
20260505004018 78 273 0.0 2.0 0.00 0.00 0.00 40 1010.3
20260505003521 78 263 0.0 2.0 0.00 0.00 0.00 43 1010.3
20260505003018 79 254 4.0 10.0 0.00 0.00 0.00 45 1010.3
20260505002018 78 254 5.0 10.0 0.00 0.00 0.00 45 1010.3
20260505001517 80 292 5.0 10.0 0.00 0.00 0.00 43 1010.3
20260505001016 79 286 5.0 8.0 0.00 0.00 0.00 44 1010.3
20260505000516 79 257 2.0 9.0 0.00 0.00 0.00 45 1010.3
20260505000019 80 250 5.0 10.0 0.00 0.00 0.00 42 1010.4
20260504235516 80 292 3.0 10.0 0.00 0.00 0.00 42 1010.4
20260504235016 78 249 2.0 8.0 0.00 0.00 0.00 42 1010.4
20260504234516 78 254 3.0 8.0 0.00 0.00 0.00 42 1010.4
20260504234015 79 244 4.0 8.0 0.00 0.00 0.00 43 1010.4
20260504233515 80 294 4.0 10.0 0.00 0.00 0.00 42 1010.5
20260504233014 79 272 4.0 8.0 0.00 0.00 0.00 46 1010.5
20260504232013 79 261 4.0 9.0 0.00 0.00 0.00 46 1010.5
20260504231514 79 209 5.0 9.0 0.00 0.00 0.00 46 1010.6
20260504231017 79 303 3.0 9.0 0.00 0.00 0.00 44 1010.5
20260504230513 79 252 3.0 10.0 0.00 0.00 0.00 44 1010.6
20260504230013 79 293 2.0 10.0 0.00 0.00 0.00 45 1010.7
20260504225514 80 266 4.0 10.0 0.00 0.00 0.00 43 1010.8
20260504225012 79 244 3.0 8.0 0.00 0.00 0.00 42 1010.7
20260504224516 80 296 4.0 8.0 0.00 0.00 0.00 42 1010.8
20260504224018 81 276 4.0 9.0 0.00 0.00 0.00 40 1010.8
20260504223512 81 288 5.0 9.0 0.00 0.00 0.00 38 1010.8
20260504223012 81 240 3.0 8.0 0.00 0.00 0.00 41 1010.9
20260504222011 80 265 4.0 10.0 0.00 0.00 0.00 39 1011.0
20260504221511 79 302 5.0 10.0 0.00 0.00 0.00 40 1011.0
20260504221011 79 286 4.0 10.0 0.00 0.00 0.00 42 1011.0
20260504220511 81 306 3.0 10.0 0.00 0.00 0.00 40 1011.1
20260504220028 80 293 5.0 8.0 0.00 0.00 0.00 39 1011.0
20260504215511 79 272 3.0 8.0 0.00 0.00 0.00 41 1011.1
20260504215011 78 226 2.0 11.0 0.00 0.00 0.00 41 1011.1
20260504214511 80 302 3.0 11.0 0.00 0.00 0.00 39 1011.1
20260504214008 80 288 5.0 10.0 0.00 0.00 0.00 40 1011.2
20260504213507 79 327 3.0 9.0 0.00 0.00 0.00 42 1011.2
20260504213009 78 247 4.0 9.0 0.00 0.00 0.00 42 1011.2
20260504212009 79 242 7.0 10.0 0.00 0.00 0.00 42 1011.2
20260504211506 79 274 4.0 10.0 0.00 0.00 0.00 45 1011.2
20260504211005 77 269 4.0 10.0 0.00 0.00 0.00 46 1011.2
20260504210505 78 254 7.0 10.0 0.00 0.00 0.00 45 1011.2
20260504210005 79 344 3.0 10.0 0.00 0.00 0.00 42 1011.2
20260504205505 78 311 6.0 10.0 0.00 0.00 0.00 44 1011.2
20260504205005 78 266 3.0 8.0 0.00 0.00 0.00 46 1011.2
20260504204507 78 281 5.0 8.0 0.00 0.00 0.00 45 1011.3
20260504204005 78 228 3.0 7.0 0.00 0.00 0.00 46 1011.2
20260504203505 78 297 4.0 8.0 0.00 0.00 0.00 47 1011.2
20260504203005 79 297 7.0 10.0 0.00 0.00 0.00 45 1011.3
20260504202003 78 288 5.0 10.0 0.00 0.00 0.00 46 1011.4
20260504201502 77 305 3.0 8.0 0.00 0.00 0.00 47 1011.4
20260504201002 76 275 5.0 9.0 0.00 0.00 0.00 49 1011.4
20260504200502 76 243 4.0 9.0 0.00 0.00 0.00 48 1011.4
20260504200003 76 281 6.0 9.0 0.00 0.00 0.00 48 1011.5
20260504195502 77 216 3.0 8.0 0.00 0.00 0.00 45 1011.5
20260504195002 75 250 1.0 8.0 0.00 0.00 0.00 48 1011.7
20260504194600 76 270 3.0 8.0 0.00 0.00 0.00 46 1011.5
20260504194059 77 282 4.0 8.0 0.00 0.00 0.00 45 1011.5
20260504193559 76 279 4.0 8.0 0.00 0.00 0.00 47 1011.7
20260504193112 75 348 3.0 10.0 0.00 0.00 0.00 48 1011.7
20260504192100 75 289 2.0 8.0 0.00 0.00 0.00 50 1011.7
20260504191557 74 260 4.0 8.0 0.00 0.00 0.00 50 1011.8
20260504191057 74 252 4.0 8.0 0.00 0.00 0.00 49 1011.9
20260504190557 75 262 5.0 8.0 0.00 0.00 0.00 50 1011.9
20260504190108 74 266 3.0 8.0 0.00 0.00 0.00 53 1011.9
20260504185556 75 271 3.0 10.0 0.00 0.00 0.00 52 1012.0
20260504185055 76 304 5.0 10.0 0.00 0.00 0.00 50 1012.0
20260504184555 75 290 3.0 8.0 0.00 0.00 0.00 50 1012.1
20260504184057 74 288 3.0 8.0 0.00 0.00 0.00 52 1012.1
20260504183553 75 306 3.0 7.0 0.00 0.00 0.00 48 1012.1
20260504183059 73 215 0.0 2.0 0.00 0.00 0.00 49 1012.2
20260504182051 73 225 0.0 4.0 0.00 0.00 0.00 52 1012.2
20260504181550 73 232 1.0 4.0 0.00 0.00 0.00 51 1012.1
20260504181050 73 244 1.0 4.0 0.00 0.00 0.00 51 1012.1
20260504180549 73 336 0.0 1.0 0.00 0.00 0.00 53 1012.2
20260504180122 72 225 0.0 4.0 0.00 0.00 0.00 54 1012.1
20260504175547 71 188 2.0 4.0 0.00 0.00 0.00 53 1012.1
20260504175046 71 218 1.0 5.0 0.00 0.00 0.00 53 1012.2
20260504174546 71 198 1.0 6.0 0.00 0.00 0.00 53 1012.1
20260504174045 71 207 0.0 1.0 0.00 0.00 0.00 54 1012.1
20260504173542 70 196 0.0 5.0 0.00 0.00 0.00 56 1012.2
20260504173046 70 336 2.0 5.0 0.00 0.00 0.00 57 1012.1
20260504171541 69 265 3.0 6.0 0.00 0.00 0.00 58 1012.1
20260504171040 69 254 1.0 8.0 0.00 0.00 0.00 58 1012.0
20260504170539 69 260 3.0 6.0 0.00 0.00 0.00 59 1012.0
20260504151023 64 155 1.0 5.0 0.00 0.00 0.00 55 1011.4
20260504150523 63 127 0.0 5.0 0.00 0.00 0.00 56 1011.3
20260504141011 60 101 1.0 6.0 0.00 0.00 0.00 58 1010.9
20260504140510 60 89 1.0 9.0 0.00 0.00 0.00 59 1010.9
20260504130600 54 109 0.0 2.0 0.00 0.00 0.00 70 1010.5
20260504120104 58 109 1.0 2.0 0.00 0.00 0.00 63 1010.3
20260504110546 59 144 0.0 0.0 0.00 0.00 0.00 60 1010.0
20260504100541 61 107 2.0 6.0 0.00 0.00 0.00 62 1010.1
20260504081532 58 138 0.0 1.0 0.00 0.00 0.00 76 1010.6
20260504081030 58 138 0.0 0.0 0.00 0.00 0.00 76 1010.6
20260504080532 59 138 0.0 0.0 0.00 0.00 0.00 75 1010.6